TimeEDT,TemperatureF,Dew PointF,Humidity,Sea Level PressureIn,VisibilityMPH,Wind Direction,Wind SpeedMPH,Gust SpeedMPH,PrecipitationIn,Events,Conditions,WindDirDegrees,DateUTC
12:15 AM,44.6,33.8,66,30.18,10.0,SW,5.8,-,N/A,,Clear,220,2013-10-28 04:15:00
12:35 AM,44.6,33.8,66,30.18,10.0,SSW,5.8,-,N/A,,Clear,210,2013-10-28 04:35:00
12:55 AM,44.6,33.8,66,30.17,10.0,SW,5.8,-,N/A,,Clear,230,2013-10-28 04:55:00
1:15 AM,44.6,33.8,66,30.18,10.0,SW,6.9,-,N/A,,Clear,220,2013-10-28 05:15:00
1:35 AM,44.6,33.8,66,30.18,10.0,SW,6.9,-,N/A,,Clear,230,2013-10-28 05:35:00
1:55 AM,44.6,33.8,66,30.17,10.0,SW,5.8,-,N/A,,Scattered Clouds,220,2013-10-28 05:55:00
2:15 AM,42.8,33.8,70,30.17,10.0,SW,6.9,-,N/A,,Mostly Cloudy,230,2013-10-28 06:15:00
2:55 AM,42.8,33.8,70,30.18,10.0,WSW,8.1,-,N/A,,Mostly Cloudy,240,2013-10-28 06:55:00
3:15 AM,42.8,33.8,70,30.18,10.0,WSW,9.2,-,N/A,,Mostly Cloudy,240,2013-10-28 07:15:00
3:17 AM,42.8,33.8,70,30.18,10.0,WSW,9.2,-,N/A,,Mostly Cloudy,240,2013-10-28 07:17:00
3:35 AM,44.6,33.8,66,30.17,10.0,West,10.4,-,N/A,,Scattered Clouds,260,2013-10-28 07:35:00
3:55 AM,44.6,33.8,66,30.17,10.0,West,9.2,-,N/A,,Mostly Cloudy,260,2013-10-28 07:55:00
4:15 AM,44.6,33.8,66,30.17,10.0,West,10.4,-,N/A,,Scattered Clouds,260,2013-10-28 08:15:00
4:35 AM,44.6,33.8,66,30.18,10.0,West,10.4,-,N/A,,Scattered Clouds,260,2013-10-28 08:35:00
4:55 AM,44.6,33.8,66,30.18,10.0,West,9.2,-,N/A,,Clear,260,2013-10-28 08:55:00
5:15 AM,42.8,33.8,70,30.19,10.0,West,9.2,-,N/A,,Clear,260,2013-10-28 09:15:00
5:35 AM,42.8,33.8,70,30.19,10.0,West,11.5,-,N/A,,Scattered Clouds,260,2013-10-28 09:35:00
5:55 AM,42.8,33.8,70,30.20,10.0,West,11.5,-,N/A,,Scattered Clouds,270,2013-10-28 09:55:00
6:15 AM,42.8,33.8,70,30.20,10.0,West,10.4,-,N/A,,Scattered Clouds,280,2013-10-28 10:15:00
6:35 AM,42.8,33.8,70,30.20,10.0,West,11.5,17.3,N/A,,Clear,270,2013-10-28 10:35:00
6:55 AM,42.8,33.8,70,30.20,10.0,West,11.5,-,N/A,,Clear,270,2013-10-28 10:55:00
7:15 AM,42.8,33.8,70,30.21,10.0,West,10.4,-,N/A,,Clear,270,2013-10-28 11:15:00
7:35 AM,42.8,35.6,76,30.22,10.0,West,11.5,-,N/A,,Clear,270,2013-10-28 11:35:00
7:55 AM,42.8,35.6,76,30.22,10.0,West,9.2,-,N/A,,Clear,270,2013-10-28 11:55:00
8:15 AM,42.8,35.6,76,30.24,10.0,West,10.4,-,N/A,,Clear,280,2013-10-28 12:15:00
8:35 AM,42.8,35.6,76,30.24,10.0,West,10.4,-,N/A,,Clear,270,2013-10-28 12:35:00
8:55 AM,42.8,35.6,76,30.25,10.0,West,9.2,-,N/A,,Clear,280,2013-10-28 12:55:00
9:15 AM,42.8,35.6,76,30.26,10.0,West,6.9,-,N/A,,Clear,260,2013-10-28 13:15:00
9:35 AM,44.6,37.4,76,30.27,10.0,West,8.1,-,N/A,,Clear,280,2013-10-28 13:35:00
9:55 AM,44.6,37.4,76,30.28,10.0,West,6.9,-,N/A,,Clear,280,2013-10-28 13:55:00
10:15 AM,46.4,39.2,76,30.28,10.0,West,5.8,-,N/A,,Clear,280,2013-10-28 14:15:00
10:35 AM,46.4,39.2,76,30.28,10.0,WNW,6.9,-,N/A,,Clear,300,2013-10-28 14:35:00
10:55 AM,46.4,39.2,76,30.29,10.0,WNW,5.8,-,N/A,,Clear,300,2013-10-28 14:55:00
11:15 AM,48.2,37.4,66,30.28,10.0,WNW,5.8,-,N/A,,Clear,300,2013-10-28 15:15:00
11:35 AM,48.2,37.4,66,30.28,10.0,NNW,5.8,-,N/A,,Clear,330,2013-10-28 15:35:00
11:55 AM,48.2,39.2,71,30.29,10.0,WNW,6.9,-,N/A,,Clear,300,2013-10-28 15:55:00
12:15 PM,50.0,39.2,66,30.29,10.0,West,6.9,-,N/A,,Clear,270,2013-10-28 16:15:00
12:35 PM,51.8,39.2,62,30.29,10.0,West,8.1,-,N/A,,Clear,280,2013-10-28 16:35:00
12:55 PM,51.8,39.2,62,30.29,10.0,West,5.8,-,N/A,,Clear,260,2013-10-28 16:55:00
1:15 PM,51.8,39.2,62,30.29,10.0,West,5.8,-,N/A,,Scattered Clouds,280,2013-10-28 17:15:00
1:35 PM,53.6,39.2,58,30.28,10.0,WNW,6.9,-,N/A,,Clear,290,2013-10-28 17:35:00
1:55 PM,53.6,41.0,62,30.28,10.0,West,9.2,-,N/A,,Scattered Clouds,260,2013-10-28 17:55:00
2:15 PM,53.6,41.0,62,30.27,10.0,WSW,9.2,-,N/A,,Scattered Clouds,240,2013-10-28 18:15:00
2:35 PM,53.6,41.0,62,30.27,10.0,WSW,8.1,-,N/A,,Scattered Clouds,240,2013-10-28 18:35:00
2:55 PM,51.8,41.0,67,30.27,10.0,WSW,9.2,16.1,N/A,,Mostly Cloudy,250,2013-10-28 18:55:00
3:15 PM,51.8,41.0,67,30.27,10.0,West,6.9,-,N/A,,Mostly Cloudy,270,2013-10-28 19:15:00
3:35 PM,51.8,41.0,67,30.27,10.0,West,9.2,-,N/A,,Overcast,260,2013-10-28 19:35:00
3:55 PM,51.8,42.8,71,30.27,10.0,WSW,8.1,-,N/A,,Overcast,250,2013-10-28 19:55:00
4:15 PM,50.0,42.8,76,30.27,10.0,West,9.2,-,N/A,,Overcast,260,2013-10-28 20:15:00
4:35 PM,48.2,42.8,82,30.28,10.0,West,8.1,-,N/A,,Overcast,270,2013-10-28 20:35:00
4:55 PM,48.2,42.8,82,30.28,10.0,West,10.4,-,N/A,,Mostly Cloudy,260,2013-10-28 20:55:00
5:15 PM,48.2,44.6,87,30.28,10.0,WSW,8.1,-,N/A,,Overcast,250,2013-10-28 21:15:00
5:35 PM,48.2,44.6,87,30.28,10.0,West,6.9,-,N/A,,Mostly Cloudy,260,2013-10-28 21:35:00
5:55 PM,48.2,44.6,87,30.28,10.0,West,8.1,-,N/A,,Overcast,270,2013-10-28 21:55:00
6:15 PM,46.4,44.6,93,30.28,7.0,West,9.2,-,N/A,,Overcast,260,2013-10-28 22:15:00
6:35 PM,46.4,44.6,93,30.28,7.0,West,9.2,-,N/A,,Overcast,260,2013-10-28 22:35:00
6:55 PM,46.4,46.4,100,30.29,10.0,West,8.1,-,N/A,,Mostly Cloudy,260,2013-10-28 22:55:00
7:15 PM,46.4,46.4,100,30.30,7.0,West,9.2,-,N/A,,Overcast,260,2013-10-28 23:15:00
7:35 PM,46.4,44.6,93,30.30,7.0,WSW,9.2,-,N/A,,Overcast,250,2013-10-28 23:35:00
7:55 PM,46.4,46.4,100,30.30,7.0,West,10.4,-,N/A,,Overcast,260,2013-10-28 23:55:00
8:15 PM,46.4,44.6,93,30.30,7.0,West,9.2,-,N/A,,Scattered Clouds,270,2013-10-29 00:15:00
8:35 PM,46.4,46.4,100,30.30,7.0,West,8.1,-,N/A,,Scattered Clouds,280,2013-10-29 00:35:00
8:55 PM,46.4,46.4,100,30.31,5.0,West,9.2,-,N/A,,Mostly Cloudy,280,2013-10-29 00:55:00
9:15 PM,46.4,46.4,100,30.31,3.0,West,10.4,-,N/A,,Mostly Cloudy,270,2013-10-29 01:15:00
9:35 PM,46.4,46.4,100,30.31,1.0,West,9.2,-,N/A,,Overcast,280,2013-10-29 01:35:00
9:55 PM,46.4,46.4,100,30.32,4.0,West,5.8,-,N/A,,Overcast,260,2013-10-29 01:55:00
10:15 PM,46.4,46.4,100,30.33,5.0,West,5.8,-,N/A,,Overcast,270,2013-10-29 02:15:00
10:35 PM,46.4,46.4,100,30.32,4.0,West,5.8,-,N/A,,Mostly Cloudy,270,2013-10-29 02:35:00
10:55 PM,46.4,46.4,100,30.33,5.0,West,8.1,-,N/A,,Mostly Cloudy,280,2013-10-29 02:55:00
11:15 PM,46.4,46.4,100,30.33,2.5,WNW,6.9,-,N/A,,Overcast,290,2013-10-29 03:15:00
11:35 PM,46.4,46.4,100,30.33,2.5,WNW,3.5,-,N/A,,Overcast,300,2013-10-29 03:35:00
11:55 PM,46.4,46.4,100,30.33,7.0,Calm,Calm,-,N/A,,Mostly Cloudy,0,2013-10-29 03:55:00